This is the latest recevied weather packets stored in our database for station/object DL6SW-10. If no packets are shown the sender has not sent any weather packets the latest 1 day(s).
| Time | Temp. | Humidity | Pressure | Rain* | Wind** | Luminosity | Snow |
|---|---|---|---|---|---|---|---|
| 1777761588 | 15.56° C | 44% | 1019.2 hPa | - | - | - | - |
| 1777761584 | 15.56° C | 44% | 1019.2 hPa | - | - | - | - |
| 1777760714 | 16.11° C | 43% | 1019.4 hPa | - | - | - | - |
| 1777760683 | 16.11° C | 43% | 1019.4 hPa | - | - | - | - |
| 1777759786 | 16.11° C | 42% | 1019.3 hPa | - | - | - | - |
| 1777759782 | 16.11° C | 42% | 1019.3 hPa | - | - | - | - |
| 1777758941 | 16.67° C | 41% | 1019 hPa | - | - | - | - |
| 1777758881 | 16.67° C | 41% | 1019 hPa | - | - | - | - |
| 1777757103 | 17.22° C | 39% | 1018.8 hPa | - | - | - | - |
| 1777757079 | 17.22° C | 39% | 1018.8 hPa | - | - | - | - |
| 1777756185 | 17.22° C | 38% | 1018.4 hPa | - | - | - | - |
| 1777756177 | 17.22° C | 38% | 1018.4 hPa | - | - | - | - |
| 1777755321 | 17.78° C | 36% | 1019.2 hPa | - | - | - | - |
| 1777755276 | 17.78° C | 36% | 1019.2 hPa | - | - | - | - |
| 1777754383 | 18.33° C | 35% | 1018.7 hPa | - | - | - | - |
| 1777754375 | 18.33° C | 35% | 1018.7 hPa | - | - | - | - |
| 1777753518 | 18.33° C | 34% | 1018.7 hPa | - | - | - | - |
| 1777753474 | 18.33° C | 34% | 1018.7 hPa | - | - | - | - |
| 1777752580 | 18.89° C | 33% | 1018.8 hPa | - | - | - | - |
| 1777752572 | 18.89° C | 33% | 1018.8 hPa | - | - | - | - |
| 1777751684 | 19.44° C | 31% | 1019.3 hPa | - | - | - | - |
| 1777751670 | 19.44° C | 31% | 1019.3 hPa | - | - | - | - |
| 1777750770 | 20° C | 30% | 1019.3 hPa | - | - | - | - |
| 1777750766 | 20° C | 30% | 1019.3 hPa | - | - | - | - |
| 1777749869 | 20.56° C | 28% | 1018.8 hPa | - | - | - | - |
* Rain since midnight (hover to see other rain measurements)
** Current wind speed in m/s (hover to see current wind gust speed)